contact:dominique.lefevre@mio.osupytheas.fr, maurice.libes@osupytheas.fr, didier.mallarino@osupytheas.fr
Project:EMSO http://www.emso-fr.org/EMSO-France
Depth: 2436.0 m
Title:EMSO Ligure Ouest : Data MII capteur AQUADOPP
Date,Latitude,Longitude,X_East,Y_North,Z_Up,Amplitude_X,Amplitude_Y,Amplitude_Z,Batterie,SoundSpeed,Heading,Pitch,Roll,Pressure,TIS,Speed,Direction
, degrees North, degrees East, m.s-1, m.s-1,m.s-1, 1, 1, 1, Volt, m.s-1, degree, degree, degree, dbar, degree_C, m.s-1, degree
2020-09-24T00:04:03,42.805,6.029,0.016,-0.037,-0.034,105.0,106.0,102.0,13.4,1505.2,325.9,-0.7,1.8,2470.471,13.3,0.04,156.6
2020-09-24T00:07:03,42.805,6.029,0.03,-0.05,-0.002,105.0,106.0,103.0,13.4,1505.3,326.0,-0.7,1.9,2470.401,13.31,0.058,149.0
2020-09-24T00:10:03,42.805,6.029,0.03,-0.053,-0.001,104.0,105.0,104.0,13.4,1505.3,325.2,-0.7,1.8,2470.46,13.32,0.06,150.5
2020-09-24T00:13:03,42.805,6.029,0.015,-0.05,0.009,105.0,106.0,102.0,13.4,1505.3,324.0,-0.7,1.8,2470.476,13.32,0.052,163.3
2020-09-24T00:16:03,42.805,6.029,0.008,-0.043,-0.036,104.0,105.0,102.0,13.4,1505.3,327.5,-0.7,1.8,2470.455,13.32,0.043,169.5
2020-09-24T00:19:03,42.805,6.029,0.019,-0.064,-0.029,105.0,106.0,102.0,13.3,1505.3,322.8,-0.7,1.8,2470.449,13.32,0.066,163.5
2020-09-24T00:22:03,42.805,6.029,0.025,-0.046,-0.012,105.0,105.0,102.0,13.4,1505.3,324.6,-0.7,1.8,2470.438,13.32,0.052,151.5
2020-09-24T00:25:03,42.805,6.029,0.021,-0.059,-0.01,105.0,106.0,102.0,13.4,1505.3,324.7,-0.7,1.8,2470.414,13.32,0.062,160.4
2020-09-24T00:28:03,42.805,6.029,0.023,-0.049,0.041,105.0,105.0,103.0,13.4,1505.3,328.0,-0.7,1.8,2470.431,13.32,0.054,154.9
2020-09-24T00:31:04,42.805,6.029,0.013,-0.029,-0.006,106.0,104.0,103.0,13.3,1505.3,323.4,-0.7,1.8,2470.388,13.32,0.031,155.9
2020-09-24T00:34:03,42.805,6.029,0.027,-0.049,0.0,106.0,105.0,102.0,13.4,1505.3,323.2,-0.7,1.8,2470.397,13.32,0.055,151.1
2020-09-24T00:37:03,42.805,6.029,0.037,-0.034,0.008,105.0,105.0,103.0,13.3,1505.3,326.2,-0.7,1.8,2470.411,13.32,0.05,132.6
2020-09-24T00:40:03,42.805,6.029,0.047,-0.053,0.033,106.0,105.0,102.0,13.4,1505.3,324.5,-0.7,1.8,2470.437,13.32,0.07,138.4
2020-09-24T00:43:03,42.805,6.029,0.04,-0.06,0.034,106.0,105.0,103.0,13.3,1505.3,327.6,-0.7,1.8,2470.416,13.32,0.072,146.3
2020-09-24T00:46:03,42.805,6.029,0.023,-0.038,0.018,106.0,105.0,103.0,13.4,1505.3,327.9,-0.7,1.8,2470.415,13.32,0.044,148.8
2020-09-24T00:49:03,42.805,6.029,0.024,-0.039,-0.006,104.0,106.0,103.0,13.4,1505.3,323.4,-0.7,1.8,2470.403,13.32,0.045,148.4
2020-09-24T00:52:03,42.805,6.029,0.016,-0.062,-0.01,105.0,105.0,102.0,13.4,1505.3,323.7,-0.7,1.8,2470.386,13.32,0.064,165.5
2020-09-24T00:55:03,42.805,6.029,0.04,-0.054,-0.001,105.0,106.0,104.0,13.4,1505.3,324.0,-0.7,1.8,2470.383,13.32,0.067,143.5
2020-09-24T00:58:03,42.805,6.029,0.033,-0.036,0.014,106.0,105.0,102.0,13.4,1505.3,323.0,-0.7,1.8,2470.422,13.32,0.048,137.5
2020-09-24T01:04:03,42.805,6.029,0.034,-0.056,0.0,105.0,105.0,103.0,13.4,1505.2,322.5,-0.7,1.8,2470.458,13.3,0.065,148.7
2020-09-24T01:07:03,42.805,6.029,0.048,-0.062,-0.008,106.0,106.0,103.0,13.4,1505.3,323.5,-0.7,1.8,2470.453,13.31,0.078,142.3
2020-09-24T01:10:03,42.805,6.029,0.026,-0.049,-0.005,105.0,105.0,103.0,13.3,1505.3,328.2,-0.7,1.8,2470.428,13.31,0.055,152.1
2020-09-24T01:13:03,42.805,6.029,0.013,-0.053,0.004,106.0,107.0,103.0,13.4,1505.3,327.9,-0.7,1.8,2470.448,13.32,0.054,166.2
2020-09-24T01:16:03,42.805,6.029,0.015,-0.052,-0.041,105.0,105.0,103.0,13.4,1505.3,325.2,-0.7,1.8,2470.439,13.32,0.054,163.9
2020-09-24T01:19:03,42.805,6.029,0.006,-0.056,-0.023,105.0,106.0,102.0,13.4,1505.3,328.4,-0.7,1.9,2470.402,13.32,0.056,173.9
2020-09-24T01:22:03,42.805,6.029,0.033,-0.055,0.02,105.0,106.0,102.0,13.3,1505.3,324.5,-0.7,1.8,2470.397,13.32,0.064,149.0
2020-09-24T01:25:03,42.805,6.029,0.034,-0.053,0.004,106.0,105.0,103.0,13.4,1505.3,327.3,-0.7,1.8,2470.386,13.32,0.062,147.3
2020-09-24T01:28:03,42.805,6.029,0.029,-0.042,0.015,105.0,106.0,103.0,13.4,1505.3,326.4,-0.7,1.8,2470.409,13.32,0.051,145.4
2020-09-24T01:31:03,42.805,6.029,0.027,-0.047,-0.03,104.0,106.0,103.0,13.3,1505.3,323.4,-0.7,1.9,2470.469,13.32,0.054,150.1
2020-09-24T01:34:03,42.805,6.029,0.031,-0.059,0.02,106.0,106.0,103.0,13.3,1505.3,324.3,-0.7,1.8,2470.369,13.32,0.066,152.3
2020-09-24T01:37:03,42.805,6.029,0.018,-0.071,0.0,106.0,105.0,102.0,13.4,1505.3,328.0,-0.7,1.8,2470.39,13.32,0.073,165.8
2020-09-24T01:40:03,42.805,6.029,0.028,-0.065,-0.016,104.0,106.0,103.0,13.3,1505.3,328.1,-0.7,1.8,2470.377,13.32,0.07,156.7
2020-09-24T01:43:03,42.805,6.029,0.029,-0.053,-0.002,104.0,106.0,103.0,13.3,1505.3,325.6,-0.7,1.8,2470.427,13.32,0.06,151.3
2020-09-24T01:46:04,42.805,6.029,0.013,-0.055,-0.005,105.0,107.0,103.0,13.4,1505.3,327.0,-0.7,1.8,2470.382,13.32,0.056,166.7
2020-09-24T01:49:03,42.805,6.029,0.028,-0.062,0.011,105.0,105.0,102.0,13.4,1505.3,327.1,-0.7,1.8,2470.399,13.32,0.068,155.7
2020-09-24T01:52:03,42.805,6.029,0.021,-0.054,0.01,105.0,106.0,103.0,13.4,1505.3,327.2,-0.7,1.8,2470.399,13.32,0.057,158.8
2020-09-24T01:55:03,42.805,6.029,0.031,-0.083,0.001,105.0,106.0,103.0,13.3,1505.3,326.9,-0.7,1.9,2470.385,13.32,0.088,159.5
2020-09-24T01:58:03,42.805,6.029,0.034,-0.063,0.014,105.0,107.0,103.0,13.4,1505.3,326.0,-0.7,1.8,2470.362,13.32,0.071,151.6
2020-09-24T02:04:03,42.805,6.029,0.036,-0.044,-0.021,104.0,106.0,103.0,13.4,1505.2,324.1,-0.7,1.8,2470.419,13.3,0.056,140.7
2020-09-24T02:07:03,42.805,6.029,0.019,-0.05,0.0,106.0,105.0,104.0,13.4,1505.3,324.5,-0.7,1.8,2470.375,13.31,0.053,159.2
2020-09-24T02:10:03,42.805,6.029,0.024,-0.061,-0.003,105.0,106.0,102.0,13.4,1505.3,325.7,-0.7,1.8,2470.421,13.31,0.065,158.5
2020-09-24T02:13:03,42.805,6.029,0.028,-0.07,-0.007,106.0,105.0,103.0,13.3,1505.3,326.0,-0.7,1.9,2470.365,13.32,0.075,158.2
2020-09-24T02:16:03,42.805,6.029,0.027,-0.06,-0.006,107.0,106.0,103.0,13.3,1505.3,324.6,-0.7,1.8,2470.381,13.32,0.065,155.8
2020-09-24T02:19:03,42.805,6.029,0.016,-0.055,0.009,105.0,105.0,104.0,13.4,1505.3,325.5,-0.7,1.8,2470.357,13.32,0.057,163.8
2020-09-24T02:22:03,42.805,6.029,0.032,-0.069,-0.015,105.0,105.0,102.0,13.4,1505.3,325.1,-0.7,1.8,2470.416,13.32,0.076,155.1
2020-09-24T02:25:03,42.805,6.029,0.029,-0.045,-0.003,105.0,108.0,103.0,13.4,1505.3,326.0,-0.7,1.9,2470.414,13.32,0.053,147.2
2020-09-24T02:28:03,42.805,6.029,0.013,-0.05,-0.002,105.0,106.0,103.0,13.3,1505.3,326.0,-0.7,1.8,2470.378,13.32,0.051,165.4
2020-09-24T02:31:03,42.805,6.029,0.025,-0.058,-0.026,105.0,106.0,103.0,13.4,1505.3,326.5,-0.7,1.8,2470.368,13.32,0.063,156.7
2020-09-24T02:34:03,42.805,6.029,0.038,-0.057,0.002,105.0,106.0,103.0,13.4,1505.3,324.0,-0.7,1.9,2470.373,13.32,0.068,146.3
2020-09-24T02:37:03,42.805,6.029,0.015,-0.056,-0.021,106.0,106.0,104.0,13.3,1505.3,323.7,-0.7,1.8,2470.343,13.32,0.057,165.0
2020-09-24T02:40:03,42.805,6.029,0.025,-0.043,0.005,105.0,106.0,103.0,13.4,1505.3,326.1,-0.7,1.8,2470.399,13.32,0.049,149.8
2020-09-24T02:46:03,42.805,6.029,0.026,-0.065,-0.035,104.0,106.0,103.0,13.4,1505.2,325.9,-0.8,1.8,2470.419,13.3,0.07,158.2
2020-09-24T02:49:03,42.805,6.029,0.024,-0.033,0.001,107.0,105.0,102.0,13.4,1505.3,324.9,-0.7,1.8,2470.407,13.31,0.04,144.0
2020-09-24T02:52:03,42.805,6.029,0.021,-0.068,-0.028,106.0,106.0,103.0,13.3,1505.3,325.7,-0.7,1.8,2470.386,13.31,0.071,162.8
2020-09-24T02:55:05,42.805,6.029,0.026,-0.029,-0.006,105.0,107.0,103.0,13.3,1505.3,326.9,-0.7,1.9,2470.394,13.32,0.038,138.1
2020-09-24T02:58:03,42.805,6.029,0.014,-0.047,-0.03,106.0,105.0,102.0,13.3,1505.3,325.1,-0.7,1.8,2470.375,13.32,0.049,163.4
2020-09-24T03:04:03,42.805,6.029,0.015,-0.039,-0.009,106.0,105.0,103.0,13.4,1505.2,326.6,-0.7,1.8,2470.425,13.3,0.041,159.0
2020-09-24T03:07:03,42.805,6.029,0.019,-0.034,0.009,105.0,107.0,103.0,13.4,1505.3,324.1,-0.7,1.8,2470.371,13.31,0.038,150.8
2020-09-24T03:10:03,42.805,6.029,0.027,-0.05,0.014,106.0,107.0,104.0,13.4,1505.3,327.0,-0.7,1.8,2470.393,13.31,0.056,151.6
2020-09-24T03:13:03,42.805,6.029,0.023,-0.061,-0.004,105.0,106.0,103.0,13.3,1505.3,326.0,-0.7,1.8,2470.349,13.32,0.065,159.3
2020-09-24T03:16:03,42.805,6.029,0.043,-0.043,-0.005,106.0,106.0,103.0,13.3,1505.3,324.5,-0.7,1.8,2470.383,13.32,0.06,135.0
2020-09-24T03:19:03,42.805,6.029,0.03,-0.044,0.005,106.0,106.0,103.0,13.3,1505.3,325.4,-0.7,1.8,2470.367,13.32,0.053,145.7
2020-09-24T03:22:03,42.805,6.029,0.007,-0.048,0.0,106.0,105.0,103.0,13.4,1505.3,328.0,-0.7,1.8,2470.363,13.32,0.048,171.7
2020-09-24T03:25:03,42.805,6.029,0.022,-0.045,-0.008,106.0,106.0,104.0,13.4,1505.3,326.3,-0.7,1.8,2470.379,13.32,0.05,153.9
2020-09-24T03:28:03,42.805,6.029,0.021,-0.053,-0.008,106.0,106.0,103.0,13.4,1505.3,323.4,-0.7,1.8,2470.372,13.32,0.057,158.4
2020-09-24T03:31:03,42.805,6.029,-0.006,-0.034,0.009,106.0,106.0,102.0,13.3,1505.3,322.9,-0.7,1.8,2470.41,13.32,0.034,190.0
2020-09-24T03:34:03,42.805,6.029,0.033,-0.037,0.014,107.0,105.0,104.0,13.4,1505.3,323.7,-0.7,1.8,2470.379,13.32,0.049,138.3
2020-09-24T03:37:03,42.805,6.029,-0.003,-0.038,-0.017,105.0,106.0,103.0,13.3,1505.3,327.6,-0.7,1.8,2470.338,13.32,0.038,184.5
2020-09-24T03:40:03,42.805,6.029,0.015,-0.046,0.006,104.0,107.0,103.0,13.3,1505.3,323.1,-0.7,1.8,2470.328,13.32,0.048,161.9
2020-09-24T03:43:03,42.805,6.029,0.031,-0.038,-0.006,106.0,107.0,103.0,13.4,1505.3,323.3,-0.7,1.9,2470.366,13.32,0.049,140.8
2020-09-24T03:46:03,42.805,6.029,0.011,-0.059,0.01,105.0,106.0,103.0,13.4,1505.3,327.7,-0.7,1.8,2470.389,13.32,0.06,169.4
2020-09-24T03:49:03,42.805,6.029,0.03,-0.035,-0.005,105.0,107.0,102.0,13.4,1505.3,326.4,-0.7,1.9,2470.345,13.32,0.046,139.4
2020-09-24T03:52:03,42.805,6.029,0.02,-0.038,0.009,106.0,107.0,103.0,13.3,1505.3,326.2,-0.7,1.8,2470.384,13.32,0.042,152.2
2020-09-24T03:55:03,42.805,6.029,0.039,-0.045,-0.001,106.0,106.0,103.0,13.4,1505.3,322.7,-0.7,1.9,2470.333,13.32,0.059,139.1
2020-09-24T03:58:03,42.805,6.029,0.026,-0.025,0.001,106.0,106.0,104.0,13.4,1505.3,323.6,-0.7,1.8,2470.285,13.32,0.036,133.9
2020-09-24T04:04:03,42.805,6.029,0.017,-0.038,0.023,105.0,107.0,103.0,13.3,1505.2,322.4,-0.7,1.8,2470.378,13.3,0.041,155.9
2020-09-24T04:07:03,42.805,6.029,0.021,-0.051,-0.004,107.0,107.0,102.0,13.4,1505.3,325.1,-0.7,1.9,2470.383,13.31,0.055,157.6
2020-09-24T04:10:03,42.805,6.029,0.026,-0.06,-0.028,106.0,106.0,103.0,13.4,1505.3,325.9,-0.7,1.8,2470.42,13.32,0.065,156.6
2020-09-24T04:13:03,42.805,6.029,0.023,-0.047,0.008,106.0,106.0,103.0,13.4,1505.3,326.0,-0.7,1.8,2470.381,13.32,0.052,153.9
2020-09-24T04:16:04,42.805,6.029,0.005,-0.049,-0.005,106.0,106.0,103.0,13.4,1505.3,323.5,-0.7,1.8,2470.36,13.32,0.049,174.2
2020-09-24T04:19:03,42.805,6.029,0.017,-0.022,-0.025,107.0,106.0,104.0,13.4,1505.3,323.7,-0.7,1.8,2470.357,13.32,0.027,142.3
2020-09-24T04:22:03,42.805,6.029,0.016,-0.038,0.022,105.0,107.0,103.0,13.4,1505.3,326.2,-0.7,1.9,2470.409,13.32,0.041,157.2
2020-09-24T04:25:03,42.805,6.029,-0.002,-0.028,0.017,107.0,106.0,103.0,13.4,1505.3,326.6,-0.7,1.8,2470.321,13.32,0.028,184.1
2020-09-24T04:28:03,42.805,6.029,0.004,-0.043,0.005,105.0,106.0,103.0,13.4,1505.3,326.1,-0.7,1.8,2470.34,13.32,0.043,174.7
2020-09-24T04:31:03,42.805,6.029,0.03,-0.039,-0.004,106.0,106.0,103.0,13.4,1505.3,326.8,-0.7,1.8,2470.33,13.32,0.049,142.4
2020-09-24T04:34:03,42.805,6.029,0.006,-0.052,0.004,105.0,106.0,102.0,13.4,1505.3,323.8,-0.7,1.8,2470.346,13.32,0.052,173.4
2020-09-24T04:37:03,42.805,6.029,0.015,-0.041,0.018,108.0,106.0,104.0,13.4,1505.3,324.8,-0.7,1.8,2470.349,13.32,0.043,159.9
2020-09-24T04:40:02,42.805,6.029,0.014,-0.039,-0.009,107.0,106.0,104.0,13.4,1505.3,324.8,-0.7,1.8,2470.326,13.32,0.041,160.3
2020-09-24T04:43:03,42.805,6.029,0.015,-0.056,0.014,107.0,107.0,103.0,13.4,1505.3,328.3,-0.7,1.8,2470.322,13.32,0.057,165.0
2020-09-24T04:46:03,42.805,6.029,0.036,-0.055,0.027,105.0,105.0,106.0,13.3,1505.3,323.5,-0.7,1.8,2470.347,13.32,0.065,146.8
2020-09-24T04:49:03,42.805,6.029,0.022,-0.044,0.025,108.0,107.0,104.0,13.4,1505.3,326.4,-0.7,1.8,2470.335,13.32,0.049,153.4
2020-09-24T04:52:03,42.805,6.029,0.014,-0.041,0.01,106.0,106.0,103.0,13.4,1505.3,326.6,-0.7,1.8,2470.344,13.32,0.043,161.1
2020-09-24T04:55:03,42.805,6.029,0.018,-0.054,-0.028,106.0,108.0,103.0,13.3,1505.3,328.0,-0.7,1.8,2470.344,13.32,0.056,161.6
2020-09-24T04:58:03,42.805,6.029,0.034,-0.036,-0.01,106.0,106.0,103.0,13.4,1505.3,324.8,-0.7,1.8,2470.351,13.32,0.049,136.6
2020-09-24T05:04:03,42.805,6.029,0.017,-0.052,0.0,106.0,107.0,103.0,13.4,1505.2,324.5,-0.8,1.8,2470.378,13.3,0.054,161.9
2020-09-24T05:07:03,42.805,6.029,0.037,-0.05,0.018,106.0,106.0,104.0,13.3,1505.3,324.4,-0.7,1.8,2470.334,13.31,0.062,143.5
2020-09-24T05:10:05,42.805,6.029,0.021,-0.055,-0.029,105.0,106.0,104.0,13.3,1505.3,325.2,-0.7,1.8,2470.36,13.32,0.058,159.1
2020-09-24T05:13:03,42.805,6.029,0.02,-0.056,-0.006,106.0,106.0,104.0,13.3,1505.3,324.7,-0.7,1.9,2470.366,13.32,0.059,160.4
2020-09-24T05:16:04,42.805,6.029,0.008,-0.044,0.003,106.0,106.0,103.0,13.4,1505.3,326.2,-0.7,1.8,2470.368,13.32,0.044,169.7
2020-09-24T05:19:03,42.805,6.029,0.003,-0.031,-0.021,106.0,106.0,103.0,13.3,1505.3,327.6,-0.7,1.9,2470.384,13.32,0.031,174.5
2020-09-24T05:22:03,42.805,6.029,0.013,-0.022,-0.012,107.0,106.0,104.0,13.4,1505.3,324.6,-0.7,1.8,2470.36,13.32,0.025,149.4
2020-09-24T05:25:03,42.805,6.029,0.007,-0.055,-0.029,105.0,107.0,105.0,13.4,1505.3,326.5,-0.7,1.8,2470.362,13.32,0.055,172.7
2020-09-24T05:28:03,42.805,6.029,0.006,-0.043,0.005,104.0,107.0,103.0,13.4,1505.3,323.1,-0.7,1.8,2470.36,13.32,0.043,172.1
2020-09-24T05:31:03,42.805,6.029,0.039,-0.046,-0.031,105.0,106.0,103.0,13.4,1505.3,324.3,-0.7,1.8,2470.361,13.32,0.06,139.7
2020-09-24T05:34:03,42.805,6.029,0.037,-0.029,0.008,107.0,106.0,104.0,13.4,1505.3,328.3,-0.7,1.8,2470.319,13.32,0.047,128.1
2020-09-24T05:37:03,42.805,6.029,0.017,-0.044,-0.013,105.0,107.0,104.0,13.4,1505.3,324.5,-0.7,1.8,2470.352,13.32,0.047,158.9
2020-09-24T05:40:03,42.805,6.029,0.024,-0.051,-0.005,108.0,107.0,103.0,13.4,1505.3,325.1,-0.7,1.8,2470.327,13.32,0.056,154.8
2020-09-24T05:43:03,42.805,6.029,0.013,-0.042,-0.014,106.0,107.0,104.0,13.4,1505.3,327.2,-0.7,1.9,2470.317,13.32,0.043,162.8
2020-09-24T05:46:03,42.805,6.029,0.008,-0.051,-0.018,106.0,108.0,103.0,13.3,1505.3,323.4,-0.7,1.8,2470.301,13.32,0.051,171.1
2020-09-24T05:49:03,42.805,6.029,0.037,-0.032,-0.023,106.0,106.0,103.0,13.4,1505.3,323.6,-0.7,1.9,2470.277,13.32,0.048,130.9
2020-09-24T05:52:03,42.805,6.029,0.008,-0.026,-0.006,106.0,106.0,103.0,13.4,1505.3,326.8,-0.7,1.8,2470.329,13.32,0.027,162.9
2020-09-24T05:55:03,42.805,6.029,0.019,-0.041,0.012,105.0,107.0,102.0,13.4,1505.3,326.7,-0.7,1.8,2470.339,13.32,0.045,155.1
2020-09-24T05:58:03,42.805,6.029,0.019,-0.059,-0.004,107.0,107.0,103.0,13.4,1505.3,326.4,-0.7,1.8,2470.305,13.32,0.061,162.2
2020-09-24T06:04:03,42.805,6.029,0.006,-0.067,-0.007,107.0,106.0,104.0,13.4,1505.2,323.8,-0.8,1.8,2470.375,13.3,0.067,174.9
2020-09-24T06:07:03,42.805,6.029,0.018,-0.053,-0.025,107.0,107.0,103.0,13.3,1505.3,326.8,-0.7,1.8,2470.335,13.31,0.055,161.2
2020-09-24T06:10:03,42.805,6.029,0.014,-0.044,-0.006,106.0,106.0,103.0,13.3,1505.3,328.2,-0.7,1.8,2470.33,13.32,0.046,162.4
2020-09-24T06:13:03,42.805,6.029,0.003,-0.036,0.01,107.0,106.0,102.0,13.4,1505.3,327.6,-0.7,1.9,2470.311,13.32,0.036,175.2
2020-09-24T06:16:03,42.805,6.029,0.019,-0.054,-0.018,106.0,106.0,103.0,13.4,1505.3,323.8,-0.7,1.8,2470.371,13.32,0.057,160.6
2020-09-24T06:19:03,42.805,6.029,-0.005,-0.036,-0.013,107.0,107.0,104.0,13.3,1505.3,327.5,-0.7,1.8,2470.351,13.32,0.036,187.9
2020-09-24T06:22:03,42.805,6.029,-0.006,-0.036,-0.017,106.0,107.0,104.0,13.4,1505.3,326.7,-0.7,1.8,2470.337,13.32,0.036,189.5
2020-09-24T06:25:03,42.805,6.029,0.021,-0.045,-0.024,107.0,107.0,104.0,13.4,1505.3,327.0,-0.7,1.8,2470.324,13.32,0.049,155.0
2020-09-24T06:28:03,42.805,6.029,0.012,-0.047,-0.039,106.0,107.0,105.0,13.4,1505.3,324.9,-0.7,1.8,2470.338,13.32,0.048,165.7
2020-09-24T06:31:03,42.805,6.029,0.005,-0.057,-0.039,106.0,107.0,103.0,13.4,1505.3,323.1,-0.7,1.8,2470.322,13.32,0.057,175.0
2020-09-24T06:34:03,42.805,6.029,0.009,-0.056,-0.02,106.0,105.0,102.0,13.4,1505.3,326.2,-0.7,1.8,2470.326,13.32,0.056,170.9
2020-09-24T06:37:03,42.805,6.029,0.03,-0.043,-0.012,106.0,106.0,104.0,13.4,1505.3,324.0,-0.7,1.8,2470.288,13.32,0.052,145.1
2020-09-24T06:40:03,42.805,6.029,0.025,-0.044,-0.013,107.0,108.0,103.0,13.4,1505.3,325.9,-0.7,1.8,2470.335,13.32,0.05,150.4
2020-09-24T06:43:03,42.805,6.029,0.048,-0.056,0.008,107.0,107.0,103.0,13.4,1505.3,324.5,-0.7,1.8,2470.297,13.32,0.073,139.4
2020-09-24T06:46:04,42.805,6.029,0.013,-0.049,-0.012,105.0,107.0,103.0,13.4,1505.3,324.9,-0.7,1.8,2470.333,13.32,0.05,165.1
2020-09-24T06:49:03,42.805,6.029,0.009,-0.053,-0.019,106.0,106.0,104.0,13.4,1505.3,326.4,-0.7,1.8,2470.302,13.32,0.053,170.4
2020-09-24T06:52:03,42.805,6.029,-0.004,-0.041,0.0,106.0,107.0,105.0,13.4,1505.3,327.3,-0.7,1.8,2470.309,13.32,0.041,185.6
2020-09-24T06:55:03,42.805,6.029,0.0,-0.047,-0.008,106.0,107.0,102.0,13.3,1505.3,328.0,-0.7,1.8,2470.329,13.32,0.047,180.0
2020-09-24T06:58:03,42.805,6.029,0.023,-0.018,0.04,107.0,106.0,103.0,13.4,1505.3,327.0,-0.7,1.8,2470.321,13.32,0.029,128.0
2020-09-24T07:04:03,42.805,6.029,0.0,-0.06,-0.002,106.0,107.0,104.0,13.3,1505.2,326.7,-0.8,1.8,2470.367,13.3,0.06,180.0
2020-09-24T07:07:03,42.805,6.029,0.012,-0.052,0.0,106.0,108.0,103.0,13.4,1505.3,328.4,-0.7,1.8,2470.363,13.31,0.053,167.0
2020-09-24T07:10:03,42.805,6.029,0.0,-0.055,0.004,107.0,107.0,103.0,13.4,1505.3,323.5,-0.7,1.9,2470.35,13.32,0.055,180.0
2020-09-24T07:13:03,42.805,6.029,0.025,-0.058,0.019,107.0,107.0,104.0,13.4,1505.3,323.2,-0.7,1.8,2470.354,13.32,0.063,156.7
2020-09-24T07:16:03,42.805,6.029,-0.003,-0.056,-0.038,106.0,107.0,102.0,13.3,1505.3,326.3,-0.7,1.8,2470.327,13.32,0.056,183.1
2020-09-24T07:19:03,42.805,6.029,0.014,-0.046,-0.039,106.0,107.0,104.0,13.3,1505.3,325.6,-0.7,1.8,2470.361,13.32,0.048,163.1
2020-09-24T07:22:03,42.805,6.029,0.008,-0.043,0.0,105.0,108.0,104.0,13.3,1505.3,325.5,-0.7,1.9,2470.338,13.32,0.043,169.5
2020-09-24T07:25:03,42.805,6.029,0.03,-0.046,-0.033,106.0,107.0,103.0,13.3,1505.3,324.6,-0.7,1.9,2470.319,13.32,0.054,146.9
2020-09-24T07:28:03,42.805,6.029,0.0,-0.059,-0.037,106.0,106.0,103.0,13.3,1505.3,324.9,-0.7,1.9,2470.326,13.32,0.058,180.0
2020-09-24T07:31:03,42.805,6.029,0.004,-0.014,0.007,106.0,107.0,104.0,13.4,1505.3,327.2,-0.7,1.9,2470.335,13.32,0.014,164.1
2020-09-24T07:34:03,42.805,6.029,0.019,-0.036,0.01,105.0,108.0,103.0,13.4,1505.3,326.8,-0.7,1.8,2470.342,13.32,0.04,152.2
2020-09-24T07:37:03,42.805,6.029,0.009,-0.046,0.0,105.0,106.0,104.0,13.4,1505.3,323.6,-0.7,1.8,2470.347,13.32,0.046,168.9
2020-09-24T07:40:03,42.805,6.029,0.018,-0.048,-0.012,107.0,107.0,104.0,13.4,1505.3,324.9,-0.7,1.8,2470.341,13.32,0.051,159.4
2020-09-24T07:43:03,42.805,6.029,0.031,-0.035,0.02,106.0,107.0,103.0,13.4,1505.3,326.5,-0.7,1.8,2470.422,13.32,0.046,138.5
2020-09-24T07:46:03,42.805,6.029,0.034,-0.069,0.011,107.0,106.0,105.0,13.4,1505.3,325.8,-0.7,1.8,2470.319,13.32,0.076,153.8
2020-09-24T07:49:03,42.805,6.029,0.032,-0.059,0.026,106.0,107.0,103.0,13.3,1505.3,325.6,-0.7,1.9,2470.356,13.32,0.067,151.5
2020-09-24T07:52:03,42.805,6.029,0.015,-0.059,-0.029,106.0,107.0,103.0,13.4,1505.3,322.9,-0.7,1.9,2470.312,13.32,0.06,165.7
2020-09-24T07:55:03,42.805,6.029,0.018,-0.043,0.008,106.0,107.0,103.0,13.4,1505.3,328.1,-0.7,1.8,2470.309,13.32,0.046,157.3
2020-09-24T07:58:03,42.805,6.029,0.01,-0.035,-0.027,106.0,108.0,103.0,13.3,1505.3,323.5,-0.7,1.8,2470.366,13.32,0.036,164.1
2020-09-24T08:04:03,42.805,6.029,-0.001,-0.038,-0.04,107.0,106.0,104.0,13.4,1505.2,325.4,-0.7,1.8,2470.383,13.3,0.038,181.5
2020-09-24T08:07:03,42.805,6.029,-0.013,-0.033,0.011,106.0,108.0,103.0,13.4,1505.3,324.9,-0.7,1.8,2470.383,13.31,0.035,201.5
2020-09-24T08:10:03,42.805,6.029,0.013,-0.074,0.003,105.0,108.0,103.0,13.4,1505.3,326.0,-0.7,1.8,2470.365,13.32,0.075,170.0
2020-09-24T08:13:03,42.805,6.029,0.0,-0.031,-0.019,105.0,107.0,103.0,13.4,1505.3,324.9,-0.7,1.8,2470.368,13.32,0.03,180.0
2020-09-24T08:16:03,42.805,6.029,0.022,-0.068,-0.041,106.0,106.0,103.0,13.4,1505.3,327.9,-0.7,1.8,2470.368,13.32,0.071,162.1
2020-09-24T08:19:03,42.805,6.029,0.026,-0.048,0.005,107.0,106.0,103.0,13.4,1505.3,322.7,-0.7,1.8,2470.388,13.32,0.054,151.6
2020-09-24T08:22:03,42.805,6.029,0.036,-0.048,0.002,106.0,106.0,103.0,13.4,1505.3,323.2,-0.7,1.9,2470.365,13.32,0.06,143.1
2020-09-24T08:25:03,42.805,6.029,-0.007,-0.027,-0.003,107.0,107.0,105.0,13.4,1505.3,323.8,-0.7,1.9,2470.351,13.32,0.027,194.5
2020-09-24T08:28:03,42.805,6.029,0.008,-0.049,-0.001,107.0,106.0,104.0,13.3,1505.3,326.8,-0.7,1.8,2470.373,13.32,0.049,170.7
2020-09-24T08:31:03,42.805,6.029,0.018,-0.062,0.017,108.0,106.0,103.0,13.3,1505.3,325.8,-0.7,1.8,2470.348,13.32,0.064,163.8
2020-09-24T08:34:03,42.805,6.029,0.019,-0.062,-0.029,106.0,107.0,104.0,13.3,1505.3,328.3,-0.7,1.9,2470.366,13.32,0.064,163.0
2020-09-24T08:37:03,42.805,6.029,0.006,-0.049,-0.014,106.0,107.0,104.0,13.4,1505.3,325.6,-0.7,1.9,2470.36,13.32,0.049,173.0
2020-09-24T08:40:03,42.805,6.029,0.002,-0.028,0.01,106.0,107.0,104.0,13.3,1505.3,323.7,-0.7,1.8,2470.348,13.32,0.028,175.9
2020-09-24T08:43:03,42.805,6.029,0.017,-0.04,-0.001,106.0,107.0,104.0,13.3,1505.3,323.5,-0.7,1.8,2470.37,13.32,0.043,157.0
2020-09-24T08:46:03,42.805,6.029,0.023,-0.038,-0.007,107.0,108.0,103.0,13.3,1505.3,323.5,-0.7,1.8,2470.362,13.32,0.044,148.8
2020-09-24T08:49:03,42.805,6.029,-0.005,-0.042,-0.01,106.0,107.0,104.0,13.3,1505.3,327.7,-0.7,1.9,2470.362,13.32,0.042,186.8
2020-09-24T08:52:03,42.805,6.029,0.029,-0.017,0.017,107.0,108.0,104.0,13.4,1505.3,322.5,-0.7,1.8,2470.353,13.32,0.033,120.4
2020-09-24T08:55:03,42.805,6.029,0.017,-0.039,-0.021,106.0,107.0,104.0,13.3,1505.3,322.8,-0.7,1.8,2470.345,13.32,0.042,156.5
2020-09-24T08:58:03,42.805,6.029,0.019,-0.055,0.006,107.0,106.0,103.0,13.4,1505.3,322.7,-0.7,1.8,2470.317,13.32,0.058,160.9
2020-09-24T09:04:03,42.805,6.029,0.037,-0.071,-0.031,106.0,107.0,104.0,13.3,1505.2,324.7,-0.7,1.8,2470.392,13.3,0.08,152.5
2020-09-24T09:07:03,42.805,6.029,0.001,-0.039,-0.004,107.0,106.0,104.0,13.4,1505.3,324.9,-0.7,1.8,2470.416,13.31,0.039,178.5
2020-09-24T09:10:03,42.805,6.029,0.0,-0.06,-0.016,105.0,107.0,103.0,13.4,1505.3,326.3,-0.7,1.8,2470.42,13.32,0.06,180.0
2020-09-24T09:13:03,42.805,6.029,0.007,-0.033,-0.04,107.0,107.0,103.0,13.4,1505.3,325.6,-0.7,1.8,2470.361,13.32,0.033,168.0
2020-09-24T09:16:03,42.805,6.029,-0.004,-0.061,-0.025,106.0,106.0,104.0,13.4,1505.3,327.6,-0.7,1.8,2470.399,13.32,0.061,183.7
2020-09-24T09:19:03,42.805,6.029,0.007,-0.055,-0.006,105.0,106.0,104.0,13.4,1505.3,327.0,-0.7,1.9,2470.442,13.32,0.055,172.7
2020-09-24T09:22:03,42.805,6.029,0.005,-0.048,0.012,106.0,106.0,103.0,13.4,1505.3,327.5,-0.7,1.8,2470.359,13.32,0.048,174.1
2020-09-24T09:25:03,42.805,6.029,-0.002,-0.043,-0.002,108.0,107.0,104.0,13.4,1505.3,327.6,-0.7,1.8,2470.371,13.32,0.043,182.7
2020-09-24T09:28:03,42.805,6.029,0.0,-0.053,-0.039,106.0,108.0,103.0,13.4,1505.3,327.5,-0.7,1.9,2470.386,13.32,0.053,180.0
2020-09-24T09:31:03,42.805,6.029,0.007,-0.053,-0.02,106.0,106.0,104.0,13.3,1505.3,324.3,-0.7,1.8,2470.389,13.32,0.053,172.5
2020-09-24T09:34:03,42.805,6.029,0.023,-0.053,-0.001,106.0,107.0,104.0,13.4,1505.3,323.4,-0.7,1.8,2470.376,13.32,0.057,156.5
2020-09-24T09:37:03,42.805,6.029,0.013,-0.042,0.011,107.0,106.0,104.0,13.4,1505.3,324.6,-0.7,1.8,2470.375,13.32,0.043,162.8
2020-09-24T09:40:03,42.805,6.029,0.002,-0.052,-0.021,106.0,107.0,102.0,13.4,1505.3,327.7,-0.7,1.8,2470.374,13.32,0.052,177.8
2020-09-24T09:43:03,42.805,6.029,0.016,-0.032,0.005,107.0,105.0,103.0,13.4,1505.3,326.1,-0.7,1.8,2470.374,13.32,0.035,153.4
2020-09-24T09:46:03,42.805,6.029,0.008,-0.041,0.008,107.0,106.0,104.0,13.4,1505.3,326.5,-0.7,1.8,2470.392,13.32,0.041,169.0
2020-09-24T09:49:03,42.805,6.029,0.02,-0.039,0.005,107.0,106.0,104.0,13.3,1505.3,323.2,-0.7,1.8,2470.37,13.32,0.043,152.9
2020-09-24T09:52:03,42.805,6.029,0.003,-0.075,-0.019,106.0,105.0,102.0,13.4,1505.3,327.2,-0.7,1.8,2470.419,13.32,0.075,177.7
2020-09-24T09:55:03,42.805,6.029,0.021,-0.035,-0.009,105.0,107.0,103.0,13.4,1505.3,324.7,-0.7,1.8,2470.387,13.32,0.04,149.0
2020-09-24T09:58:03,42.805,6.029,-0.013,-0.067,-0.025,106.0,107.0,103.0,13.4,1505.3,327.4,-0.7,1.8,2470.4,13.32,0.068,191.0